Temperature
-3 -2 -2 -2 -3 -3 -3 -2 -2 -1 -2 -2 -2 -3 -2 -2 -2 -2 -2 -2 -2 -2 -2 -2 -2 -2 -2 -2 -2 -2 -2 -2 -2 -2 -2 -3 -3 -3 -3 -3 -3 -2 -2 -2
-3 -2 -3 -2 -3 -3 -3 -3 -3 -3 -3 -3 -3 -3 -3 -3 -3 -3 -3 -3 -3 -3 -3 -3 -3 -3 -3 -3 -3 -3 -3 -3 -3 -3 -3 -3 -3 -3 -4 -3 -3 -3 -3 -3
-3 -3 -3 -3 -3 -4 -4 -4 -4 -3 -3 -4 -4 -4 -4 -3 -3 -3 -3 -3 -3 -3 -3 -3 -3 -4 -4 -4 -4 -3 -3 -3 -4 -4 -4 -4 -4 -4 -4 -4 -4 -4 -4 -4
-4 -4 -2 -2 -4 -4 -4 -5 -5 -5 -5 -4 -4 -4 -4 -3 -4 -4 -4 -4 -4 -4 -4 -4 -4 -4 -4 -4 -4 -4 -4 -4 -4 -5 -5 -5 -5 -5 -5 -5 -5 -5 -5 -4
-4 -4 -3 -3 -4 -5 -4 -4 -5 -5 -5 -5 -5 -5 -4 -4 -4 -4 -4 -4 -4 -4 -4 -4 -4 -5 -5 -5 -5 -5 -5 -5 -5 -5 -5 -5 -5 -5 -5 -5 -5 -5 -5 -5
-5 -4 -3 -3 -4 -5 -4 -4 -5 -6 -6 -6 -6 -6 -5 -4 -5 -4 -4 -4 -4 -4 -4 -5 -5 -5 -5 -5 -5 -5 -5 -5 -6 -6 -6 -6 -6 -6 -6 -6 -6 -6 -6 -6
-5 -5 -4 -5 -5 -5 -4 -4 -5 -5 -5 -6 -6 -6 -5 -5 -5 -5 -5 -5 -5 -5 -5 -5 -5 -5 -6 -6 -6 -6 -6 -6 -6 -6 -6 -7 -7 -7 -7 -7 -7 -7 -7 -7
-6 -5 -4 -5 -6 -5 -5 -5 -5 -5 -5 -6 -6 -6 -6 -6 -6 -5 -5 -5 -5 -5 -5 -6 -6 -6 -6 -6 -6 -6 -7 -7 -7 -7 -7 -7 -7 -7 -8 -8 -8 -8 -8 -8
-6 -5 -5 -5 -5 -5 -5 -5 -6 -6 -6 -6 -6 -6 -6 -6 -6 -6 -6 -6 -6 -6 -6 -6 -6 -6 -7 -7 -7 -7 -7 -7 -7 -7 -8 -8 -8 -8 -8 -8 -8 -8 -8 -8
-7 -7 -6 -5 -5 -5 -5 -5 -6 -6 -6 -6 -7 -7 -7 -7 -7 -7 -6 -7 -7 -7 -7 -7 -7 -7 -7 -7 -7 -8 -8 -8 -8 -8 -8 -8 -8 -9 -9 -9 -9 -9 -9 -9
-8 -8 -7 -6 -5 -6 -6 -6 -6 -6 -7 -7 -7 -7 -8 -8 -7 -7 -7 -7 -7 -7 -7 -7 -7 -7 -7 -8 -8 -8 -8 -8 -9 -9 -9 -9 -9 -9 -9 -9 -9 -10 -10 -10
-7 -7 -8 -7 -6 -6 -7 -7 -7 -7 -7 -7 -8 -8 -8 -8 -8 -8 -8 -8 -8 -8 -8 -8 -8 -8 -8 -8 -8 -9 -9 -9 -9 -9 -9 -9 -10 -10 -10 -10 -10 -10 -10 -10
-7 -7 -7 -7 -7 -7 -7 -8 -8 -8 -8 -8 -8 -8 -8 -8 -8 -8 -8 -8 -8 -8 -8 -8 -8 -8 -8 -9 -9 -9 -9 -9 -10 -10 -10 -10 -10 -10 -10 -10 -10 -10 -10 -11
-7 -7 -8 -8 -8 -8 -8 -8 -8 -8 -9 -9 -9 -9 -9 -9 -9 -9 -9 -9 -9 -9 -9 -9 -9 -9 -9 -9 -9 -10 -10 -10 -10 -10 -10 -10 -11 -11 -11 -11 -11 -11 -11 -11
-8 -8 -8 -8 -9 -9 -9 -9 -9 -9 -9 -9 -9 -9 -9 -9 -9 -9 -9 -9 -9 -9 -9 -9 -9 -9 -9 -10 -10 -10 -10 -10 -10 -11 -11 -11 -11 -11 -11 -11 -11 -11 -11 -11
-9 -9 -9 -9 -9 -9 -9 -10 -10 -10 -10 -10 -10 -10 -10 -10 -10 -10 -10 -10 -10 -10 -10 -10 -10 -10 -10 -10 -10 -10 -11 -11 -11 -11 -11 -11 -11 -12 -12 -12 -12 -12 -12 -12
-10 -10 -10 -10 -10 -10 -10 -10 -11 -11 -11 -11 -11 -11 -11 -11 -11 -10 -10 -10 -10 -10 -10 -10 -10 -10 -11 -11 -11 -11 -11 -11 -11 -12 -12 -12 -12 -12 -12 -12 -12 -12 -12 -12
-10 -10 -10 -10 -11 -11 -10 -10 -11 -11 -11 -11 -11 -11 -11 -11 -11 -11 -11 -11 -11 -11 -11 -11 -11 -11 -11 -11 -11 -12 -12 -12 -12 -12 -12 -12 -12 -12 -13 -13 -13 -13 -13 -13
-10 -10 -10 -11 -11 -11 -11 -11 -11 -11 -11 -12 -12 -12 -12 -12 -12 -12 -12 -12 -12 -11 -12 -12 -12 -12 -12 -12 -12 -12 -12 -12 -12 -12 -13 -13 -13 -13 -13 -13 -13 -13 -13 -13
-10 -11 -11 -11 -11 -11 -11 -12 -12 -12 -12 -12 -12 -12 -12 -12 -12 -12 -12 -12 -12 -12 -12 -12 -12 -12 -12 -13 -13 -12 -12 -13 -13 -13 -13 -13 -13 -13 -13 -13 -13 -13 -13 -14
-11 -11 -11 -12 -12 -12 -12 -12 -12 -12 -12 -12 -13 -13 -13 -13 -13 -13 -13 -13 -13 -13 -13 -13 -13 -13 -13 -13 -13 -13 -13 -13 -13 -13 -13 -13 -13 -13 -13 -13 -14 -14 -14 -14
-11 -12 -12 -12 -12 -12 -12 -12 -13 -13 -13 -13 -13 -13 -13 -13 -13 -13 -13 -13 -13 -13 -13 -13 -13 -13 -13 -13 -13 -13 -13 -13 -13 -13 -13 -14 -14 -14 -14 -14 -14 -14 -14 -14
-12 -12 -12 -12 -13 -13 -13 -13 -13 -13 -13 -13 -13 -13 -14 -14 -14 -14 -14 -14 -14 -14 -14 -13 -13 -13 -13 -13 -13 -13 -14 -14 -14 -14 -14 -14 -14 -14 -14 -14 -14 -14 -14 -14
-12 -13 -13 -13 -13 -13 -13 -13 -13 -13 -14 -14 -14 -14 -14 -14 -14 -14 -14 -14 -14 -14 -14 -14 -14 -14 -14 -14 -14 -14 -14 -14 -14 -14 -14 -14 -14 -14 -14 -14 -14 -14 -15 -15
-13 -13 -13 -13 -13 -14 -14 -14 -14 -14 -14 -14 -14 -14 -14 -14 -14 -14 -14 -14 -14 -14 -14 -14 -14 -14 -14 -14 -14 -14 -14 -15 -15 -15 -15 -15 -15 -15 -15 -15 -15 -15 -15 -15
-13 -13 -14 -14 -14 -14 -14 -14 -14 -14 -15 -14 -14 -14 -15 -15 -15 -15 -15 -15 -15 -15 -14 -14 -14 -14 -15 -15 -15 -15 -15 -15 -15 -15 -15 -15 -15 -15 -15 -15 -15 -15 -15 -15
-13 -14 -14 -14 -14 -14 -15 -15 -15 -15 -15 -15 -15 -15 -15 -15 -15 -15 -15 -15 -15 -15 -15 -15 -15 -15 -15 -15 -15 -15 -15 -15 -15 -15 -15 -15 -15 -15 -15 -15 -15 -15 -15 -15
Wind_Speed
5 4 3 5 6 5 7 7 8 8 9 11 9 6 5 4 4 4 4 4 4 4 3 3 3 3 3 3 3 2 2 2 3 3 3 3 3 3 2 3 3 3 3 3
3 3 3 6 7 7 7 7 8 9 11 10 8 5 4 4 5 5 5 5 5 4 4 4 3 3 3 3 3 2 2 3 3 3 2 2 2 2 2 2 2 2 2 3
4 3 3 6 5 6 4 4 5 8 9 7 6 7 5 5 5 5 6 5 5 5 4 4 4 3 3 3 3 2 2 3 3 3 2 2 2 1 1 1 1 2 2 3
1 2 5 6 2 4 5 4 5 5 6 6 6 6 5 4 4 5 6 6 6 5 4 4 3 2 2 2 2 2 2 3 3 2 2 2 2 1 2 1 2 2 3 3
2 3 7 5 2 3 4 5 3 5 7 7 5 4 3 3 3 5 7 6 5 4 4 2 2 1 1 1 2 2 2 2 2 2 2 2 2 2 2 2 2 2 3 3
3 3 5 5 3 2 2 4 3 2 4 4 4 3 4 5 6 7 7 5 5 4 2 1 2 1 1 1 2 3 3 3 2 2 2 2 3 3 2 2 2 3 3 3
5 5 7 5 2 2 3 5 3 2 3 3 3 5 6 7 7 6 6 6 5 3 2 2 2 1 1 2 3 3 3 3 3 2 2 2 2 2 2 2 2 2 3 4
4 4 7 1 3 3 4 3 3 4 4 4 5 6 6 6 6 7 6 6 4 3 3 3 1 1 2 3 3 3 2 3 3 3 2 2 2 2 2 2 2 3 3 4
6 6 3 1 3 3 2 3 4 5 5 5 5 6 7 6 6 6 6 5 4 3 3 3 2 1 2 3 3 2 2 2 3 3 3 2 2 2 2 2 2 3 3 3
4 5 4 4 3 3 3 4 5 5 5 5 6 7 7 7 6 6 5 5 4 3 3 4 3 2 2 2 2 2 2 2 2 2 3 2 2 2 2 2 2 3 3 4
5 6 5 4 4 4 5 4 5 5 4 5 5 7 6 6 6 6 5 5 4 3 4 4 3 3 2 2 1 1 2 2 3 2 2 3 3 2 3 3 4 4 4 4
5 5 4 6 5 4 4 5 5 5 6 5 5 6 6 6 5 5 5 5 4 4 4 4 3 3 3 2 1 1 2 2 2 2 2 2 3 4 5 5 6 7 6 6
4 4 4 5 4 4 4 5 5 5 5 7 6 5 5 5 5 5 5 4 5 5 4 4 3 3 3 2 2 2 2 3 2 2 2 3 3 3 4 5 6 7 7 8
3 2 3 3 4 5 4 5 5 5 4 4 4 5 4 4 4 4 5 5 5 4 4 3 3 4 4 3 2 2 3 3 3 2 2 3 3 3 3 4 4 5 6 8
4 3 4 4 4 5 5 4 5 6 6 6 4 4 4 5 5 5 5 5 4 3 4 3 4 4 4 3 3 3 3 2 2 2 2 2 3 3 3 4 4 5 5 6
4 3 2 3 4 5 5 5 5 6 6 6 6 6 5 5 5 5 5 4 3 4 4 4 4 5 4 3 3 3 3 4 3 2 2 2 2 3 3 3 4 4 5 5
2 3 3 4 5 6 5 5 5 6 6 6 6 6 5 5 4 5 5 4 3 4 4 4 5 5 4 3 3 2 2 3 4 3 2 2 3 3 3 3 4 4 5 6
3 4 4 5 5 6 6 6 5 5 5 5 5 5 4 4 5 5 5 4 4 4 4 4 4 4 3 3 2 2 2 2 2 2 2 3 3 3 3 3 4 5 4 5
3 4 4 4 4 4 5 6 5 5 5 4 4 4 4 4 4 5 4 4 4 5 5 6 7 5 4 4 3 2 2 2 2 3 3 4 4 3 3 4 4 4 4 4
4 4 4 4 4 3 4 5 5 5 4 4 3 3 4 4 4 4 4 4 4 4 5 6 5 4 4 4 3 1 2 2 2 3 3 3 3 3 4 4 4 4 4 4
4 4 4 4 4 4 4 4 4 4 4 3 3 3 4 4 4 3 3 4 5 5 5 7 4 4 3 3 3 1 1 2 2 2 3 3 3 4 4 4 4 4 4 5
3 4 4 4 4 5 5 4 3 3 3 3 3 3 3 4 4 4 3 3 5 7 5 4 3 5 5 5 2 1 2 2 2 2 3 3 3 4 4 4 4 4 4 5
3 4 4 4 4 4 5 4 3 3 3 3 3 3 3 3 3 3 4 4 4 7 5 4 6 7 7 4 2 2 2 3 3 3 3 3 4 4 4 4 4 4 4 5
3 3 3 3 3 3 4 4 4 3 3 3 3 3 3 3 3 3 3 6 7 7 4 6 8 8 7 3 2 2 2 3 3 3 3 3 3 4 4 4 4 4 5 5
3 3 3 3 3 3 3 3 3 3 3 3 3 4 3 2 2 4 4 4 6 6 4 6 8 8 5 3 3 3 3 3 3 3 3 3 4 4 4 4 4 4 5 5
2 3 3 3 3 3 2 2 2 3 3 3 4 4 3 3 3 3 3 4 5 6 5 4 4 5 4 4 4 4 3 4 5 4 4 4 4 5 4 5 5 5 5 5
3 2 2 2 2 2 2 2 2 3 3 3 4 4 4 3 3 3 4 4 4 4 4 4 4 4 4 4 4 4 4 4 4 4 4 4 4 4 5 5 5 5 5 6
Wind_Direction
250 260 230 242 252 224 213 220 232 253 255 272 279 282 287 289 299 299 300 304 298 294 295 301 305 307 310 313 322 322 320 305 283 279 276 265 252 245 240 239 242 238 238 248
272 252 264 276 268 239 238 241 244 264 273 275 284 290 294 291 295 294 290 293 295 294 291 289 286 291 300 308 313 319 314 303 306 308 303 283 264 248 243 246 252 256 258 257
261 287 321 278 245 214 220 223 214 243 263 289 307 308 300 293 296 292 296 291 288 286 276 275 273 274 275 289 308 320 320 317 316 316 310 303 303 311 278 267 271 273 269 268
246 14 251 250 191 194 209 240 233 253 279 288 285 291 289 289 284 300 307 301 290 284 284 282 278 283 284 303 315 317 312 316 321 325 327 326 329 319 303 287 263 262 268 268
180 235 270 288 244 179 205 267 261 259 283 305 314 322 314 329 323 303 303 297 292 285 279 281 282 279 284 310 319 316 308 308 315 318 317 322 316 307 303 291 285 278 277 272
182 213 244 262 275 264 143 278 280 256 283 310 351 331 295 322 325 316 316 313 312 311 313 299 287 269 270 291 304 300 300 301 307 304 298 297 296 300 299 291 285 289 291 285
213 230 260 268 288 97 164 265 303 280 278 292 267 253 280 308 314 316 320 319 321 323 317 293 282 262 268 280 279 288 304 317 317 310 300 290 290 294 293 295 299 296 294 294
192 221 257 252 116 178 235 303 301 294 291 285 279 284 293 304 313 323 325 324 325 323 316 310 295 254 265 275 285 301 316 319 314 313 308 306 304 300 295 287 293 294 295 299
202 222 262 182 207 237 267 285 289 289 290 287 287 291 299 304 310 315 316 317 318 310 309 313 305 266 261 281 293 301 308 305 305 315 317 305 291 291 298 286 277 284 286 288
257 268 279 274 260 289 288 273 281 281 284 285 282 290 296 299 306 311 312 312 316 311 306 310 310 298 270 281 291 287 289 297 304 310 311 313 304 291 283 275 273 278 281 284
264 285 308 292 285 300 307 305 307 307 299 290 287 290 291 297 301 304 308 310 310 301 294 299 307 303 303 297 284 294 298 302 305 302 297 302 304 292 281 262 260 268 270 273
247 260 253 275 291 303 304 304 304 308 313 308 290 286 291 294 295 299 302 305 308 306 303 300 304 304 306 298 271 267 291 301 300 299 298 301 301 309 307 302 301 298 295 293
260 284 274 282 304 315 307 305 307 302 296 301 303 292 290 292 297 302 304 307 304 303 300 299 302 300 301 297 283 265 269 282 286 291 293 295 299 300 308 314 315 314 310 308
295 319 304 302 302 315 315 316 316 313 309 304 304 307 305 301 303 308 308 306 305 307 312 310 303 297 296 291 283 278 276 275 280 273 278 284 286 291 295 304 313 315 317 319
317 302 267 292 314 325 331 335 334 330 328 328 325 320 316 312 311 310 311 316 322 323 321 319 312 302 302 293 287 282 282 279 278 277 280 284 287 290 294 298 301 306 314 321
317 322 313 316 318 324 331 333 326 321 322 320 322 321 316 309 308 313 319 326 324 317 315 313 310 305 303 298 295 290 284 290 302 295 293 297 294 293 296 298 299 303 308 313
318 320 321 317 312 313 312 309 304 305 309 310 311 314 319 322 324 325 327 329 319 307 307 310 310 314 314 304 291 289 292 295 300 301 292 287 287 288 291 295 298 302 303 307
253 266 269 272 284 297 307 310 308 306 304 304 310 317 322 322 317 315 319 328 335 335 328 323 317 324 324 314 304 296 297 298 301 297 294 290 294 294 294 294 299 301 304 310
296 292 294 292 286 288 296 303 306 307 306 309 312 312 311 311 313 316 323 333 334 332 331 329 334 345 332 318 325 309 310 310 309 307 302 298 305 302 299 298 300 301 305 309
318 317 314 313 313 303 301 304 306 309 311 310 311 317 323 323 324 328 334 332 320 307 311 322 335 335 326 319 331 334 325 318 310 306 305 302 301 301 300 300 301 302 304 305
315 315 316 317 316 313 306 304 303 306 312 312 309 308 313 320 325 327 330 328 325 325 326 332 338 325 323 329 338 346 329 321 315 309 307 305 303 301 300 300 301 302 303 305
306 310 310 312 315 316 315 309 301 303 313 318 316 315 323 330 334 332 321 307 314 327 336 326 321 325 337 342 352 347 329 316 310 305 300 299 298 297 297 297 297 300 301 302
303 305 307 309 308 309 318 325 322 316 312 310 312 314 316 314 314 313 316 317 319 327 336 324 330 341 351 4 360 342 327 317 310 307 303 299 296 294 294 293 293 296 298 299
304 306 308 311 315 323 329 329 331 326 315 309 311 308 306 313 316 305 294 313 329 334 336 330 342 350 357 3 345 331 323 314 308 306 304 303 301 298 297 298 298 299 297 295
305 305 308 314 318 316 317 325 331 331 332 333 329 324 320 305 293 308 314 318 328 339 335 332 343 350 355 344 339 329 318 308 307 308 306 308 305 302 298 296 296 296 294 292
306 302 297 294 294 300 310 316 318 321 325 327 327 328 328 324 317 318 322 325 328 336 339 331 332 339 341 336 331 326 317 314 318 315 307 304 302 301 299 301 299 295 292 288
314 311 311 316 320 316 314 308 305 309 312 308 309 316 323 327 328 329 329 330 330 330 327 327 328 329 328 328 325 324 319 315 313 311 309 303 300 298 297 295 295 293 291 289
Height
1498 1496 1497 1496 1495 1496 1495 1492 1491 1485 1484 1478 1475 1475 1473 1472 1470 1469 1468 1466 1464 1463 1462 1461 1460 1459 1458 1457 1456 1455 1453 1452 1451 1450 1450 1449 1449 1449 1450 1451 1451 1452 1452 1453
1499 1495 1495 1493 1491 1492 1491 1491 1489 1486 1482 1474 1473 1473 1471 1470 1468 1466 1465 1463 1462 1461 1459 1458 1457 1456 1455 1454 1453 1452 1450 1449 1448 1447 1446 1445 1445 1445 1445 1446 1446 1446 1447 1447
1497 1495 1494 1491 1487 1488 1488 1487 1486 1483 1479 1474 1473 1471 1469 1467 1466 1464 1463 1461 1459 1458 1456 1455 1454 1453 1452 1451 1450 1449 1447 1446 1445 1443 1442 1442 1441 1441 1441 1441 1441 1441 1442 1442
1499 1500 1495 1483 1481 1481 1482 1482 1481 1478 1475 1473 1472 1469 1467 1465 1464 1462 1461 1459 1457 1455 1453 1453 1452 1451 1450 1449 1448 1446 1445 1443 1442 1440 1439 1439 1438 1437 1437 1437 1437 1437 1437 1437
1499 1498 1490 1482 1480 1481 1482 1479 1477 1476 1474 1471 1469 1467 1465 1464 1462 1461 1458 1456 1454 1453 1451 1450 1449 1448 1447 1446 1445 1443 1442 1440 1439 1438 1437 1436 1435 1434 1434 1434 1433 1433 1432 1432
1498 1495 1488 1479 1477 1476 1479 1479 1474 1473 1472 1470 1468 1469 1465 1462 1460 1458 1456 1454 1451 1450 1449 1447 1446 1445 1444 1443 1442 1440 1439 1438 1437 1436 1434 1433 1432 1432 1431 1430 1430 1429 1428 1428
1496 1494 1485 1479 1476 1476 1481 1477 1472 1471 1470 1470 1468 1467 1463 1460 1458 1456 1453 1451 1449 1447 1446 1445 1444 1443 1441 1440 1439 1438 1437 1436 1434 1433 1432 1431 1430 1429 1428 1427 1426 1426 1425 1424
1495 1493 1485 1476 1476 1478 1476 1472 1471 1470 1468 1467 1465 1462 1459 1457 1455 1453 1451 1449 1447 1445 1443 1443 1442 1440 1438 1437 1437 1436 1434 1433 1432 1431 1430 1429 1428 1426 1425 1424 1423 1422 1421 1420
1485 1481 1475 1473 1473 1473 1472 1471 1469 1468 1466 1464 1461 1459 1457 1455 1453 1450 1448 1446 1444 1442 1441 1440 1439 1438 1436 1435 1434 1433 1431 1430 1429 1428 1427 1426 1425 1424 1423 1422 1421 1420 1418 1417
1481 1475 1473 1472 1471 1470 1470 1468 1467 1465 1463 1461 1459 1456 1454 1452 1450 1448 1446 1444 1442 1440 1438 1437 1436 1435 1434 1432 1431 1430 1429 1427 1426 1425 1424 1423 1422 1421 1420 1419 1418 1416 1415 1414
1479 1474 1471 1469 1469 1468 1467 1465 1464 1462 1461 1458 1456 1453 1451 1449 1447 1445 1443 1441 1439 1437 1435 1434 1433 1432 1431 1430 1428 1427 1426 1424 1423 1422 1421 1420 1419 1418 1417 1416 1415 1414 1412 1411
1475 1472 1471 1468 1467 1466 1465 1463 1461 1459 1456 1455 1453 1450 1448 1446 1444 1442 1440 1438 1436 1434 1433 1431 1430 1429 1428 1427 1425 1424 1422 1421 1420 1419 1418 1417 1416 1415 1414 1413 1412 1411 1409 1408
1471 1469 1468 1466 1465 1464 1462 1460 1459 1457 1454 1451 1449 1447 1445 1443 1441 1439 1437 1435 1433 1431 1429 1428 1427 1426 1425 1424 1422 1421 1420 1419 1418 1417 1416 1414 1413 1412 1410 1409 1408 1407 1406 1404
1469 1467 1465 1464 1463 1461 1460 1458 1456 1454 1451 1449 1447 1444 1442 1440 1438 1436 1434 1432 1430 1428 1427 1425 1424 1423 1422 1421 1419 1418 1417 1416 1415 1414 1413 1412 1411 1409 1408 1406 1404 1402 1402 1401
1466 1465 1464 1462 1460 1459 1457 1455 1452 1450 1448 1446 1444 1442 1439 1437 1435 1433 1431 1429 1427 1426 1424 1422 1421 1420 1419 1418 1416 1415 1415 1413 1412 1411 1411 1409 1408 1407 1405 1404 1402 1400 1398 1397
1464 1463 1461 1460 1458 1456 1454 1452 1450 1448 1446 1443 1441 1439 1437 1435 1432 1430 1429 1427 1425 1423 1421 1420 1418 1417 1416 1415 1414 1413 1412 1411 1410 1409 1407 1406 1405 1404 1402 1401 1399 1397 1395 1393
1462 1460 1458 1457 1455 1454 1452 1450 1448 1446 1444 1441 1439 1436 1434 1432 1430 1428 1426 1424 1423 1421 1419 1418 1416 1415 1413 1412 1411 1410 1409 1408 1407 1406 1405 1403 1402 1401 1400 1398 1396 1395 1393 1391
1461 1459 1457 1456 1453 1451 1449 1448 1446 1443 1441 1439 1436 1434 1432 1430 1427 1426 1424 1422 1420 1419 1417 1416 1414 1412 1411 1410 1408 1407 1406 1405 1404 1403 1402 1401 1400 1399 1397 1396 1394 1392 1390 1388
1458 1457 1455 1453 1451 1449 1447 1445 1443 1441 1439 1437 1434 1432 1430 1428 1426 1424 1422 1420 1418 1416 1415 1413 1412 1410 1409 1407 1406 1405 1404 1403 1402 1400 1399 1398 1397 1396 1394 1393 1391 1389 1388 1386
1456 1454 1452 1450 1449 1447 1444 1442 1440 1438 1436 1434 1432 1430 1428 1426 1424 1422 1420 1419 1417 1415 1413 1412 1410 1408 1407 1406 1404 1403 1402 1400 1399 1398 1397 1395 1394 1393 1392 1390 1388 1387 1385 1383
1453 1452 1450 1448 1446 1444 1442 1440 1438 1436 1434 1432 1430 1428 1426 1424 1423 1421 1419 1417 1416 1414 1412 1410 1408 1407 1405 1404 1403 1401 1399 1398 1397 1395 1394 1393 1391 1390 1389 1387 1385 1384 1382 1380
1451 1449 1447 1445 1443 1441 1439 1437 1435 1433 1432 1430 1428 1426 1424 1423 1421 1419 1418 1416 1414 1412 1410 1409 1407 1405 1404 1402 1400 1399 1397 1396 1395 1393 1392 1390 1389 1387 1386 1384 1382 1381 1379 1377
1448 1447 1445 1443 1441 1439 1437 1435 1433 1431 1429 1428 1426 1425 1423 1421 1420 1418 1416 1415 1413 1411 1409 1407 1406 1404 1402 1400 1399 1397 1395 1394 1392 1391 1389 1388 1386 1385 1383 1381 1380 1378 1376 1374
1446 1444 1442 1440 1439 1436 1434 1432 1431 1429 1428 1426 1425 1423 1422 1420 1418 1417 1415 1413 1411 1409 1408 1406 1404 1402 1400 1399 1397 1395 1393 1392 1390 1389 1387 1386 1384 1382 1380 1379 1377 1375 1373 1371
1443 1441 1440 1438 1436 1434 1432 1430 1429 1427 1426 1424 1423 1422 1420 1419 1417 1415 1413 1411 1410 1408 1406 1404 1403 1401 1399 1397 1395 1393 1392 1390 1388 1387 1385 1383 1382 1380 1378 1376 1374 1372 1371 1369
1440 1439 1437 1436 1434 1432 1430 1429 1427 1425 1424 1422 1421 1420 1418 1417 1415 1413 1412 1410 1408 1406 1405 1403 1401 1399 1397 1395 1393 1392 1390 1388 1386 1385 1383 1381 1379 1377 1375 1374 1372 1370 1368 1366
1438 1436 1435 1433 1431 1430 1428 1427 1425 1424 1422 1421 1419 1418 1417 1415 1413 1412 1410 1408 1407 1405 1403 1401 1399 1397 1395 1394 1392 1390 1388 1386 1384 1382 1381 1379 1377 1375 1373 1371 1369 1367 1366 1364